Terminal Aerodrome Forecast
Issued by NWS

Home | Current Version | Previous Version | Text Only | Print | Product List | Glossary On
Versions: 1 2 3 4 5 6 7 8 9 10 11 12
000
FTUS46 KSGX 302336
TAFPSP
TAF
KPSP 302336Z 3100/3124 10009KT P6SM SCT110
     FM310300 33007KT P6SM SKC
     FM311900 12008KT P6SM SCT100=

USA.gov is the U.S. government's official web portal to all federal, state and local government web resources and services.